GFSMA_850_temp_000.txt.gz
Temp
18 18 18 18 18 17 18 17 17 17 16 17 16 17 17 17 17 17 17 17 18 18 17 17 17 17 17 17 17 17 17 17 17 17 17 16 16 16 16 16 16 16 16
18 17 17 17 17 17 17 17 17 17 16 17 17 16 16 17 16 16 17 17 17 17 17 17 17 17 17 17 17 17 17 17 17 16 16 16 16 16 16 16 16 16 16
18 18 17 17 17 17 18 17 16 16 17 17 17 17 16 16 16 16 16 17 17 17 17 17 17 17 17 17 17 17 17 17 17 17 17 17 17 16 16 16 16 16 16
18 18 17 17 17 17 17 17 17 17 17 17 17 17 17 16 16 16 16 16 17 17 17 17 17 17 17 17 17 17 17 17 17 17 17 17 17 17 17 17 17 17 17
18 17 17 17 17 18 17 17 17 16 17 17 17 17 17 16 16 17 16 16 16 17 18 17 17 17 17 17 17 17 17 17 17 17 17 17 17 16 16 17 17 17 17
17 17 17 17 17 17 17 17 16 17 16 16 16 17 16 16 16 17 17 17 16 16 17 16 17 17 17 17 17 17 17 17 17 17 17 17 17 17 17 17 17 17 17
18 18 17 17 17 17 16 15 16 16 16 16 16 18 17 16 16 16 16 16 16 16 16 15 16 16 17 16 16 16 16 17 17 17 17 17 17 17 17 17 17 17 17
17 17 17 17 17 17 15 15 15 16 16 16 17 17 19 18 17 17 16 16 16 16 16 15 15 17 15 15 16 17 17 17 16 16 17 17 17 17 16 17 17 17 17
17 18 18 17 17 16 17 15 15 15 17 16 15 16 19 20 18 17 16 16 15 15 15 15 14 15 16 14 14 15 16 16 16 16 16 16 16 17 17 16 16 17 17
17 17 17 16 17 16 15 15 15 15 15 17 16 15 15 16 18 19 18 16 16 16 14 15 15 14 15 14 14 16 16 16 16 16 16 16 16 16 16 16 16 17 17
17 17 16 18 17 16 15 15 14 14 15 16 16 16 15 16 15 16 18 18 17 16 15 15 14 15 14 13 14 14 15 15 15 16 16 16 16 16 16 16 16 16 16
17 16 16 17 17 15 15 15 15 14 15 14 15 15 16 16 17 16 17 17 16 16 15 15 15 15 14 14 13 14 15 15 15 15 15 15 16 16 16 16 16 16 16
18 17 17 17 16 15 15 15 15 14 14 14 14 15 16 16 16 16 16 16 16 16 16 15 15 14 14 14 13 14 14 14 14 14 14 15 15 15 15 16 16 16 16
18 17 17 17 16 15 14 15 15 14 15 14 14 14 15 16 16 15 15 15 16 17 17 16 15 14 14 13 13 13 13 13 14 14 14 14 14 15 15 16 16 16 16
18 17 18 17 15 15 14 14 15 14 14 14 15 14 14 16 16 16 15 14 15 16 16 17 16 15 14 14 13 12 12 12 14 14 14 14 14 14 14 15 15 16 16
18 16 18 17 16 15 14 14 15 14 14 14 15 15 14 15 16 16 15 15 15 15 15 16 15 15 14 13 13 12 12 13 14 14 14 14 14 14 14 14 14 15 16
20 18 18 18 16 18 15 14 14 15 14 14 14 14 14 14 15 16 16 15 15 15 14 15 15 15 14 13 13 12 12 12 12 12 12 13 14 14 14 14 14 14 15
21 20 18 17 16 17 15 14 14 15 15 14 14 14 14 15 15 14 15 15 15 14 14 13 13 13 14 13 13 12 12 13 12 12 12 12 12 13 14 14 14 14 14
21 19 21 19 17 16 15 14 14 14 15 14 14 14 15 15 14 15 14 14 15 15 14 14 13 14 14 13 14 13 13 13 12 13 13 12 12 11 12 12 12 12 13
20 21 21 19 18 16 15 14 14 14 15 14 14 14 14 14 14 14 14 14 14 13 14 13 14 14 14 14 14 13 13 14 14 14 13 12 12 12 12 12 11 11 11
21 21 21 19 17 15 16 15 14 14 15 15 14 14 14 14 15 15 14 14 14 14 14 14 14 14 14 13 13 13 13 13 13 13 13 13 13 13 13 12 12 12 12
21 20 20 19 16 16 16 15 15 15 14 14 14 14 14 15 15 15 14 14 14 13 13 12 13 13 12 11 12 12 12 11 12 12 12 12 12 12 12 12 12 11 11
19 19 19 18 17 16 15 16 16 15 14 14 14 15 14 14 13 13 14 14 14 14 13 12 11 11 11 11 11 10 10 10 10 11 10 10 11 12 12 12 11 10 10
18 17 16 17 15 14 16 15 15 15 14 14 15 15 15 14 13 13 13 13 13 13 11 11 10 10 10 10 10 9 9 9 9 9 10 11 12 12 11 10 10 10 11
14 14 14 14 13 13 15 15 15 14 14 15 15 15 15 15 13 13 13 13 12 12 11 11 10 11 11 11 11 10 9 9 9 8 9 11 11 11 9 10 11 9 10
14 14 14 14 13 14 16 16 16 15 15 15 16 15 14 14 14 13 13 12 11 11 10 10 9 9 9 9 9 8 8 8 8 10 11 10 9 8 8 8 8 8 9

GFSMA_850_temp_003.txt.gz
Temp
19 19 19 18 19 19 18 19 18 18 18 17 18 17 17 18 18 18 18 17 17 18 18 18 17 17 17 18 17 16 17 17 17 17 17 17 16 17 16 16 17 16 16
18 18 18 18 18 19 18 18 18 17 17 18 18 17 17 17 17 16 18 18 17 18 18 17 18 18 17 17 17 17 16 17 17 17 17 17 17 16 17 17 17 17 16
18 19 18 18 19 19 18 18 17 18 19 19 18 18 18 17 17 16 17 18 18 17 18 18 18 17 17 17 17 17 17 17 17 17 17 17 17 17 17 16 16 16 16
18 18 18 18 19 18 18 18 18 17 18 19 18 18 18 17 17 17 17 17 18 18 18 17 17 17 17 17 17 17 17 17 17 17 17 17 17 17 17 17 17 17 16
18 18 19 19 18 18 17 17 18 18 18 18 18 18 18 18 17 18 17 17 17 17 18 18 17 17 17 17 17 17 17 17 17 17 17 17 17 17 17 17 17 17 17
18 18 19 18 17 18 18 17 17 17 17 17 18 18 18 17 17 17 17 18 16 17 17 17 17 17 17 17 17 17 17 17 17 17 17 17 17 17 17 17 17 17 17
18 18 18 18 17 18 17 17 16 17 18 18 17 19 18 17 17 17 18 17 17 17 16 16 16 16 16 16 17 16 17 16 16 16 17 17 17 17 17 17 17 17 17
18 18 18 19 18 18 17 16 15 16 18 17 17 18 20 18 17 18 17 17 16 17 16 16 15 17 15 15 16 16 16 16 17 16 16 16 16 17 17 17 17 17 17
18 18 18 18 17 17 18 16 16 16 17 17 17 17 20 19 19 17 17 17 16 16 16 15 15 15 17 15 15 16 17 16 16 16 16 16 16 16 17 17 17 17 17
18 18 17 17 17 17 17 16 16 16 16 18 18 17 17 17 19 19 18 17 17 16 15 16 16 15 15 15 15 16 16 17 16 16 16 17 17 17 16 16 17 17 17
18 18 18 17 16 17 17 16 15 16 16 16 18 18 17 17 17 18 19 18 18 17 16 15 15 15 15 14 14 14 15 16 16 16 16 16 16 16 17 16 17 17 17
19 18 18 17 16 17 16 15 15 15 15 16 16 16 17 18 18 18 18 18 17 17 17 16 15 15 15 15 14 14 14 15 15 15 15 16 16 16 16 16 16 16 17
20 19 17 17 16 16 16 15 15 15 15 15 16 16 16 16 17 17 17 17 16 17 17 17 16 15 15 14 14 14 13 14 14 15 15 15 15 15 15 15 16 16 17
20 19 17 17 16 16 15 15 15 15 16 15 14 15 16 16 16 17 16 16 15 16 17 17 16 16 15 15 14 14 14 13 14 14 14 14 14 14 14 15 15 16 16
20 18 17 17 17 16 16 15 15 15 16 15 15 15 15 16 17 17 16 16 15 16 17 17 17 16 16 15 15 14 13 13 13 13 14 14 14 14 14 14 14 15 16
19 19 17 19 19 17 16 17 15 15 15 15 15 16 15 16 16 16 16 16 16 16 16 16 16 16 15 15 15 14 13 13 13 13 13 13 13 13 14 14 14 15 15
18 19 22 21 19 17 15 15 15 16 16 15 15 15 15 15 15 16 17 17 16 16 16 16 15 15 14 14 14 14 14 13 13 14 13 13 13 13 13 13 14 14 14
22 23 23 21 17 18 16 17 15 16 15 15 15 15 15 16 15 15 16 16 15 16 15 15 14 14 14 14 14 14 13 14 14 14 14 14 13 13 13 13 13 13 13
23 23 22 20 20 20 18 18 17 15 15 16 15 15 15 15 15 15 15 15 15 15 15 15 15 15 14 14 14 14 14 14 13 14 14 14 13 13 13 13 13 13 12
24 23 21 21 20 19 19 16 17 15 15 15 15 15 15 15 15 15 15 14 15 14 15 15 15 14 14 14 14 15 14 13 13 14 14 14 14 13 13 13 13 13 12
25 24 22 20 20 17 17 16 15 15 15 15 15 15 15 15 14 14 14 14 14 14 15 15 15 15 14 15 14 13 13 13 13 14 14 13 13 13 13 13 13 13 13
22 21 21 21 20 17 17 17 17 15 15 15 14 14 15 15 15 15 15 15 13 12 13 13 13 13 13 12 12 12 12 13 12 13 12 12 12 12 12 12 13 13 13
19 18 21 20 17 16 16 18 17 15 15 15 14 15 15 14 14 15 15 15 14 13 13 13 13 12 12 12 12 11 11 11 11 11 10 10 11 11 11 12 13 13 12
19 18 18 17 15 15 15 17 17 15 15 15 14 14 14 14 14 14 14 13 14 14 13 12 12 12 11 11 11 11 10 10 10 11 11 10 11 11 12 12 12 11 11
17 17 16 16 15 14 14 15 15 15 15 14 14 14 14 15 15 14 14 14 14 13 12 12 12 12 11 11 10 9 9 10 11 10 10 10 11 11 11 11 10 10 10
17 15 15 15 15 15 14 14 14 14 15 15 15 14 15 15 15 14 14 14 13 12 12 12 11 10 11 10 10 10 10 9 10 10 11 10 10 10 9 9 9 9 9

GFSMA_850_temp_006.txt.gz
Temp
19 19 19 19 19 19 19 18 19 18 19 19 19 18 17 18 17 17 18 18 18 18 18 17 17 17 18 17 17 17 17 17 17 17 17 17 17 17 16 17 17 16 16
19 19 18 20 20 19 19 19 19 19 19 18 19 18 18 18 17 17 17 17 18 18 18 17 17 17 17 17 18 17 17 17 17 17 17 17 17 16 16 17 17 17 17
19 19 19 19 19 19 19 19 18 18 18 19 19 19 18 18 17 17 17 18 18 18 18 18 17 17 17 17 17 17 17 16 16 17 17 17 17 17 17 17 17 17 17
19 19 19 18 19 18 19 18 18 18 18 18 19 19 18 18 18 17 17 18 18 18 18 18 18 18 17 17 17 17 17 17 17 17 17 17 17 17 17 17 16 16 16
18 19 18 18 18 19 19 18 18 17 18 18 18 19 18 18 18 17 17 17 17 18 17 17 18 18 18 18 17 17 17 16 16 17 17 17 17 17 17 17 17 17 17
19 18 18 18 19 19 18 18 18 17 18 18 18 18 18 18 18 18 18 17 17 18 17 16 17 17 16 16 17 17 17 17 17 16 16 17 16 17 17 16 17 17 17
19 19 19 18 19 18 17 17 18 18 18 18 18 18 17 18 17 18 18 17 17 17 17 16 16 17 16 16 16 16 16 16 17 17 17 17 17 17 17 17 16 16 17
20 20 19 18 18 18 18 17 18 18 18 18 18 18 18 18 18 18 17 17 18 17 16 16 16 16 16 16 17 17 17 16 16 16 16 17 17 17 17 17 17 17 17
20 18 18 18 18 18 18 18 17 17 17 17 18 17 18 18 18 18 17 17 17 17 16 16 16 16 16 15 15 17 16 16 16 16 16 16 16 16 16 16 17 17 17
19 18 19 19 18 18 18 17 17 17 17 17 18 18 18 18 18 17 17 17 17 17 17 17 16 16 16 15 15 15 15 16 16 16 16 16 16 16 16 16 16 16 16
19 19 18 18 18 19 17 17 17 18 17 17 18 18 17 18 18 18 17 17 17 17 17 16 16 16 15 15 15 14 15 15 16 16 16 16 16 16 16 16 16 16 17
20 19 18 18 18 18 18 18 18 17 16 16 17 17 17 18 17 18 18 18 18 17 17 17 16 15 16 15 15 14 14 14 15 15 15 15 16 16 16 16 16 16 16
20 19 19 18 18 18 18 18 18 16 17 17 16 16 17 17 18 17 17 17 17 17 17 17 17 16 16 15 15 15 15 14 14 14 14 15 15 15 15 15 15 16 16
20 20 20 20 19 18 18 18 18 17 16 16 16 17 16 17 17 17 17 17 17 16 17 17 17 16 16 15 15 15 15 15 15 14 14 14 14 14 14 15 15 15 15
21 20 20 20 19 18 17 17 17 16 16 15 15 16 16 16 17 17 17 16 16 16 16 17 17 16 16 15 15 15 15 15 15 14 14 14 14 14 14 14 14 14 15
21 20 20 20 19 18 17 17 17 16 16 17 15 15 16 16 16 16 17 17 17 16 16 16 16 16 15 15 15 15 14 14 15 14 14 14 13 14 14 14 14 14 14
20 20 20 19 19 18 17 17 17 17 16 16 16 16 16 16 16 16 16 16 17 16 16 16 16 16 15 15 15 14 14 14 14 14 14 14 14 14 14 13 14 14 14
20 20 20 20 19 18 18 18 18 17 16 17 16 16 16 16 16 16 16 16 16 16 15 15 15 15 15 14 14 14 14 14 14 14 14 14 14 14 14 13 13 13 13
21 22 21 20 19 18 19 19 19 18 17 17 16 16 16 15 15 15 15 15 15 15 15 14 14 15 15 15 15 15 15 14 14 14 14 14 14 14 13 13 13 13 13
21 21 21 20 20 19 19 18 17 18 18 18 16 16 15 15 15 15 15 15 15 15 14 14 13 13 14 15 15 14 14 14 13 13 13 14 14 14 14 13 13 13 13
20 20 19 19 18 19 19 17 16 17 17 16 15 16 15 15 15 16 15 15 15 15 15 14 14 14 14 14 14 14 14 14 14 13 13 13 13 13 13 13 13 13 13
19 19 19 18 18 19 18 16 16 16 16 16 16 16 15 15 15 15 15 15 15 15 15 14 14 14 14 13 13 13 12 11 11 12 12 12 13 12 12 12 12 12 12
19 18 18 19 18 16 16 16 16 16 16 16 16 16 15 15 15 15 15 15 15 15 14 14 14 14 13 13 12 12 12 12 11 12 11 11 11 10 10 11 11 12 12
19 18 17 16 16 16 16 17 16 16 16 16 16 15 15 16 15 15 15 15 15 15 14 13 13 13 13 12 12 11 11 11 11 11 11 11 11 11 11 11 11 11 12
19 18 17 16 15 15 16 15 16 16 15 16 15 15 15 15 16 15 14 14 14 14 14 13 12 12 12 11 11 11 11 11 10 10 10 10 10 10 10 11 11 11 10
17 17 17 16 15 15 15 16 15 14 14 14 14 15 15 14 14 14 14 14 14 14 13 13 12 12 12 12 12 11 11 11 10 9 10 10 9 9 9 9 9 9 9

GFSMA_850_temp_009.txt.gz
Temp
19 19 19 18 18 19 18 18 18 19 19 18 18 18 18 17 17 17 17 17 17 17 17 18 17 17 18 17 17 17 17 17 17 16 16 16 16 16 16 16 16 16 16
20 19 19 19 19 19 18 19 19 19 19 19 18 18 18 18 18 17 17 17 17 17 17 17 17 17 17 17 17 17 17 17 17 17 17 16 16 16 16 16 16 16 16
20 20 19 19 19 19 19 19 19 18 18 18 18 18 18 18 18 17 17 17 17 17 17 17 17 17 17 17 17 18 17 17 17 17 17 17 16 16 16 16 16 16 16
20 20 19 19 18 18 18 18 19 18 18 18 18 18 18 18 18 17 17 17 17 17 17 17 17 17 17 17 17 17 17 17 17 17 17 16 16 16 17 17 16 16 16
19 19 18 18 18 18 18 18 18 18 18 18 18 18 18 18 18 18 17 17 17 17 17 17 16 16 16 16 17 17 17 17 17 17 17 17 17 16 16 16 17 17 17
19 20 19 18 19 18 18 18 19 18 18 17 18 18 18 18 17 18 17 17 17 17 17 17 17 16 17 17 16 16 16 17 17 16 16 17 17 17 17 17 17 17 16
20 19 19 19 19 18 19 18 18 18 17 18 18 18 18 18 18 17 17 17 17 17 17 16 16 17 16 16 17 16 16 16 16 16 16 16 17 16 16 16 17 17 17
20 20 19 19 19 19 18 18 18 18 18 18 18 18 18 17 18 17 17 17 17 17 17 17 17 16 16 16 16 17 16 16 16 16 16 16 16 16 16 16 16 16 16
20 20 19 19 18 18 18 18 18 18 17 18 18 18 17 17 17 17 17 17 17 17 17 17 17 16 16 16 16 16 16 16 16 16 16 16 16 16 16 16 16 16 16
20 19 19 19 18 18 18 18 18 18 17 17 17 17 18 18 17 17 17 17 17 17 17 17 17 16 16 16 16 16 16 16 16 16 16 16 16 16 16 16 16 16 16
20 19 19 18 19 18 18 19 19 19 18 17 17 17 17 17 18 18 17 17 17 17 17 17 17 16 16 16 16 16 16 15 15 16 16 16 16 15 16 16 16 16 16
20 20 19 19 19 19 19 19 19 19 18 18 17 17 18 17 17 17 17 17 17 16 16 16 16 16 16 15 16 16 15 15 15 15 15 15 15 15 15 15 15 15 16
20 20 20 20 20 19 20 19 19 19 18 17 17 17 17 17 17 17 17 17 17 17 17 16 17 16 16 16 16 15 15 15 15 15 15 15 15 15 15 14 15 15 15
21 20 20 20 20 19 19 20 19 19 19 18 18 17 17 17 17 17 17 17 17 17 17 17 16 16 16 16 15 15 15 15 15 14 14 14 14 14 15 15 15 15 15
21 20 20 20 20 19 19 20 19 19 18 18 18 18 17 17 17 17 17 17 17 16 16 17 16 16 16 15 15 15 15 15 15 15 14 14 14 14 14 14 14 14 14
21 21 20 20 20 20 19 20 19 18 17 17 17 17 17 17 16 16 17 16 17 16 16 16 16 16 16 15 15 15 15 15 15 15 15 14 14 14 14 14 14 13 13
21 21 21 20 20 20 20 20 19 18 17 17 16 17 16 17 16 16 16 16 16 16 16 16 16 16 16 16 15 15 15 15 14 14 14 14 14 14 14 13 14 13 13
21 21 20 20 20 20 20 20 20 18 18 17 17 16 16 16 16 16 16 16 16 16 15 15 15 16 15 15 15 15 15 14 14 14 14 14 14 14 14 14 14 13 13
21 21 20 20 20 20 20 20 20 18 18 17 17 16 16 16 16 17 16 16 16 16 15 15 15 15 15 15 15 14 14 14 14 14 13 13 14 14 13 13 13 13 13
21 21 21 20 20 20 20 19 19 18 17 17 16 16 16 16 16 16 16 16 16 16 15 15 15 15 15 15 14 14 14 14 14 14 14 13 13 13 13 13 13 13 13
21 20 20 20 20 19 19 19 19 18 18 17 16 16 16 15 16 16 15 16 16 16 15 15 15 14 14 14 14 14 13 13 13 14 13 13 13 13 13 13 13 13 12
21 20 20 19 19 19 18 18 18 17 17 17 17 16 15 15 15 15 15 15 15 15 15 15 14 14 14 14 14 13 13 13 12 13 12 11 12 12 12 12 12 12 11
20 19 19 19 19 19 18 17 17 17 17 17 16 16 15 15 15 15 15 15 15 15 14 14 14 13 13 14 13 13 12 12 12 12 11 11 12 10 10 10 10 10 11
20 20 19 19 18 18 17 16 16 16 16 16 16 15 15 15 15 15 15 15 14 14 14 14 13 13 13 13 12 12 12 12 11 11 11 10 10 10 10 10 10 10 10
20 19 19 19 18 17 16 15 16 16 16 15 15 15 15 15 15 15 14 14 14 14 14 14 14 13 13 12 12 11 11 11 11 11 11 10 9 10 9 9 10 10 10
21 21 19 18 17 16 16 16 16 16 16 15 15 15 14 14 14 14 14 14 14 14 13 13 13 12 12 12 11 11 11 11 10 10 10 9 9 9 9 9 9 10 10

GFSMA_850_temp_012.txt.gz
Temp
19 19 19 19 19 19 19 19 19 19 19 18 18 18 18 17 17 17 17 17 16 17 18 17 17 17 17 17 17 17 17 17 16 16 16 16 16 16 16 16 16 16 16
20 20 19 19 19 19 19 19 18 19 19 18 18 18 18 18 17 17 17 17 16 17 17 17 17 17 17 17 17 17 17 17 17 16 16 16 16 16 16 16 16 16 16
20 19 19 19 18 18 18 18 19 19 18 18 18 18 18 17 17 17 17 17 17 17 17 17 17 17 17 17 17 17 17 17 17 17 17 16 16 16 16 16 16 16 16
19 19 19 19 19 18 18 18 18 18 18 18 18 18 18 17 17 17 17 17 17 17 17 17 17 17 17 16 16 17 17 17 16 16 16 17 17 17 17 17 16 16 16
19 19 19 19 19 19 18 18 18 18 18 18 18 18 18 18 18 17 17 17 17 17 17 16 16 16 16 16 16 16 16 17 17 17 17 16 16 16 16 16 16 16 16
19 19 19 19 18 18 18 18 18 18 18 17 18 18 18 18 17 17 17 17 17 17 17 16 17 17 16 16 16 16 17 16 16 16 16 16 16 16 16 16 17 16 16
19 20 19 19 18 18 18 18 18 18 18 18 18 18 18 17 17 17 17 17 17 17 17 17 17 16 17 16 16 16 16 16 16 16 16 16 16 16 16 16 16 16 16
20 19 19 19 18 18 18 18 18 18 18 18 17 18 18 17 17 17 17 17 17 17 17 16 16 17 16 16 16 16 16 16 16 16 16 16 16 16 16 16 16 16 16
20 19 19 19 19 19 19 18 18 18 18 17 18 18 17 17 17 17 17 17 17 17 17 17 16 16 17 16 16 16 16 16 16 16 16 15 15 16 16 16 16 16 16
20 19 19 19 19 19 19 18 18 18 18 17 17 17 18 18 17 17 17 17 17 17 17 17 16 16 16 16 16 16 16 16 16 16 16 16 16 16 16 16 16 15 15
20 19 19 19 19 19 18 18 19 19 18 17 17 17 17 17 17 17 17 16 17 17 17 16 16 16 16 16 16 15 15 15 15 16 16 16 16 16 16 16 16 16 16
20 20 19 19 19 19 19 19 19 18 18 17 17 17 17 17 17 17 17 16 17 17 16 16 16 16 16 16 16 15 15 15 15 15 15 15 15 15 15 15 15 15 15
20 20 20 20 20 19 19 19 20 19 19 18 17 17 17 17 17 17 17 17 17 16 16 16 17 16 16 16 15 15 15 15 15 15 15 14 14 14 15 15 15 15 15
21 21 20 20 20 20 19 20 20 20 19 18 18 17 17 17 17 17 17 17 17 17 16 16 16 16 16 16 15 15 15 15 15 14 14 14 14 14 14 14 14 14 14
21 21 20 20 20 20 20 20 20 20 19 19 18 18 17 17 17 17 17 16 16 16 16 16 16 16 16 16 16 15 15 15 14 14 14 14 14 14 13 13 13 13 13
21 20 20 21 20 20 20 20 20 20 20 19 18 18 18 17 16 16 16 17 17 16 16 16 16 16 16 15 16 15 15 15 15 14 15 14 14 14 14 13 14 13 13
20 20 20 21 21 20 20 20 20 20 20 19 19 18 17 17 16 16 16 16 16 16 16 16 16 16 16 16 16 15 15 15 15 15 14 14 14 14 14 13 13 13 14
20 20 20 20 20 20 20 20 20 20 20 20 19 18 17 16 16 16 16 16 16 16 16 16 16 16 16 16 15 15 15 14 14 14 14 14 14 14 13 13 14 13 14
21 20 20 20 20 20 20 20 20 20 20 20 19 18 17 16 16 16 16 16 16 15 16 16 16 16 16 15 15 15 14 14 14 14 13 13 13 13 13 13 13 13 13
21 21 20 20 20 20 20 20 20 19 19 19 19 18 17 16 16 15 16 16 15 16 15 15 16 16 15 15 14 14 14 13 14 13 13 14 14 13 13 13 12 12 12
22 21 20 20 20 20 20 20 20 19 18 19 18 18 18 17 16 15 16 16 15 16 16 16 15 15 15 14 14 13 13 13 13 13 13 13 13 13 13 13 13 13 12
22 21 20 20 20 20 20 20 19 19 17 18 18 18 18 17 16 15 15 15 15 15 16 15 15 14 14 14 13 13 12 12 12 13 12 12 11 12 11 11 11 11 11
22 21 20 20 20 20 20 20 18 17 17 17 17 18 17 16 15 15 15 15 15 15 15 15 14 14 14 14 13 13 12 12 12 12 11 11 11 11 10 10 10 10 10
21 21 20 20 20 20 20 20 18 17 16 16 17 17 17 16 15 15 14 14 14 14 14 14 14 14 14 13 13 12 12 12 11 11 11 11 11 11 10 10 10 10 10
21 21 21 20 19 20 18 18 17 16 16 16 16 16 16 15 15 14 14 14 14 14 14 13 13 13 13 13 12 12 12 11 11 11 11 10 10 10 9 10 10 10 9
22 21 21 20 21 21 19 18 16 16 16 16 15 15 15 15 14 14 14 14 14 14 13 13 13 12 12 12 11 11 11 10 10 10 10 9 9 9 9 9 9 9 9

GFSMA_850_temp_015.txt.gz
Temp
19 19 19 19 19 19 19 19 19 18 18 18 18 18 17 17 17 17 16 16 17 17 17 16 16 17 17 16 16 16 16 17 16 16 16 16 16 16 16 16 16 16 16
18 19 19 19 19 19 19 19 18 18 18 18 18 18 17 17 17 16 16 16 16 16 17 16 16 17 16 17 16 16 16 17 17 16 16 16 16 16 16 16 16 16 16
19 19 19 19 19 19 18 18 18 18 18 18 18 18 18 17 17 17 16 16 17 17 17 16 16 16 16 16 16 16 16 16 17 16 16 16 16 16 16 16 16 16 16
18 18 19 19 18 18 18 18 18 18 18 18 18 18 18 17 17 17 17 17 17 17 16 16 16 16 16 16 16 17 17 16 16 16 16 17 16 16 16 16 16 16 16
19 18 18 18 19 19 19 18 18 18 17 18 18 18 18 17 17 17 17 17 17 17 17 16 16 16 16 16 16 16 16 17 16 16 16 16 16 16 16 16 16 16 16
19 19 19 19 19 19 19 18 18 17 18 17 17 18 17 17 17 17 17 17 17 17 17 17 17 16 16 16 16 16 16 16 16 16 16 16 16 16 16 16 16 16 16
19 19 19 19 19 19 18 18 18 17 17 17 17 17 17 17 17 17 17 17 17 17 16 16 16 16 16 16 16 16 16 16 16 16 16 16 16 16 16 16 16 16 16
19 19 19 19 19 18 18 18 18 17 18 17 17 17 17 17 17 17 17 17 17 17 17 16 16 16 16 16 16 16 17 16 16 16 16 16 16 15 16 15 16 16 16
19 19 19 19 19 18 18 18 18 17 18 17 17 17 17 17 17 17 17 17 17 17 17 17 16 16 16 16 16 16 16 16 16 16 16 16 16 15 16 16 16 16 16
19 19 19 19 19 18 19 18 18 17 18 17 17 17 17 17 17 16 17 17 17 16 16 16 16 16 16 16 16 15 15 15 15 16 16 16 16 16 15 15 15 15 15
19 20 19 19 19 19 19 18 18 18 18 17 17 17 17 17 17 17 17 17 17 16 16 16 16 16 16 16 15 15 15 15 15 15 15 15 15 15 15 15 16 16 16
20 20 19 19 19 18 19 19 19 18 18 18 17 17 17 17 17 17 16 17 17 17 16 16 16 16 16 16 16 15 15 15 15 15 15 15 15 15 15 15 15 15 15
20 20 19 19 19 19 19 19 19 19 19 18 18 17 17 17 17 17 17 17 16 17 16 16 16 16 16 16 16 15 15 15 15 15 14 14 14 14 14 14 14 14 14
20 20 20 19 20 19 19 19 19 19 19 19 18 17 17 17 17 17 17 17 17 16 16 16 16 16 16 16 16 15 15 15 14 14 14 14 14 14 13 13 13 13 13
20 20 20 20 20 19 19 19 19 20 20 19 19 18 17 17 16 16 16 17 17 16 17 16 16 16 16 16 16 15 15 15 14 14 14 14 14 14 14 13 13 13 13
20 20 20 20 20 20 19 19 19 19 20 20 19 19 18 17 17 16 16 16 16 16 16 16 16 16 16 16 16 15 15 15 15 15 14 14 14 14 14 14 13 13 13
20 20 21 20 20 20 20 19 19 19 20 20 19 19 18 17 17 16 16 15 16 16 16 16 16 16 16 16 15 15 15 15 15 14 14 14 14 14 14 14 13 13 13
21 20 21 20 20 20 20 20 20 19 19 20 20 20 19 18 17 16 16 15 15 16 16 16 16 16 16 16 15 15 15 15 14 14 14 14 14 13 13 13 13 13 13
21 20 20 20 20 20 20 20 20 19 19 19 20 20 20 18 17 16 16 16 15 15 15 15 15 16 16 16 15 15 15 15 14 14 14 13 13 13 13 13 13 13 13
22 21 20 20 20 20 20 20 20 19 19 19 19 19 20 19 18 16 16 16 15 15 15 15 15 16 16 15 15 15 15 15 14 13 13 13 13 13 12 12 12 12 12
22 22 21 20 20 20 20 20 19 20 19 18 18 18 18 19 18 17 16 15 15 15 15 15 15 15 15 15 14 14 14 14 14 13 13 13 12 12 12 12 12 12 11
22 22 22 21 21 20 20 20 20 19 19 18 17 17 17 18 18 17 16 15 15 15 14 15 15 15 14 14 14 14 13 13 13 13 12 12 11 11 12 12 11 11 11
22 23 22 21 21 21 21 20 20 19 19 17 16 16 17 17 17 17 16 15 15 15 14 14 14 14 14 14 13 14 13 12 12 12 11 11 11 11 11 11 11 11 11
23 23 22 22 21 21 21 20 20 20 20 16 16 16 16 16 17 17 16 15 14 14 14 14 14 14 14 13 13 13 13 12 12 11 10 10 11 11 11 10 10 10 10
23 23 22 22 22 22 21 20 19 19 19 17 16 17 16 16 16 16 15 14 14 14 14 14 14 13 13 13 12 12 12 11 11 11 10 10 10 10 10 10 10 9 9
23 22 22 22 22 21 20 19 20 18 18 16 17 16 16 16 15 15 14 14 14 14 14 14 13 13 13 12 12 12 11 10 10 10 10 9 9 9 8 9 9 8 8

GFSMA_850_temp_021.txt.gz
Temp
18 18 19 19 18 18 18 18 18 18 18 18 18 18 17 17 17 16 15 16 16 16 16 16 16 17 16 16 16 16 16 16 16 16 16 16 16 16 16 16 15 15 16
18 18 18 18 18 18 18 18 18 18 18 18 18 18 17 17 17 16 16 16 16 16 16 16 16 16 16 16 16 16 16 16 16 16 16 16 16 16 16 16 16 15 16
19 18 18 18 18 18 18 18 18 18 18 18 18 18 17 17 17 17 16 16 16 16 16 17 17 16 16 16 16 16 16 16 16 16 16 16 16 16 16 16 16 16 16
19 19 18 18 18 18 18 18 17 17 17 17 17 17 17 17 17 17 17 16 16 16 16 16 16 16 16 16 16 16 16 16 16 16 16 17 16 16 16 16 16 16 16
19 18 18 18 18 18 17 17 17 17 17 17 17 17 18 17 17 16 17 17 17 16 16 17 16 16 16 16 16 16 16 16 16 16 16 16 16 16 16 16 16 16 16
19 19 19 18 18 18 18 17 17 17 17 17 17 17 17 17 17 17 16 16 17 16 16 16 16 16 16 16 16 16 16 16 16 16 16 16 16 16 16 16 16 16 16
19 19 19 18 18 18 17 17 17 17 17 17 17 17 17 17 17 17 17 16 16 16 16 16 16 16 15 16 16 16 16 16 16 16 16 16 16 16 16 16 16 15 15
19 19 19 19 18 18 18 17 17 17 17 17 17 17 17 17 17 17 17 17 17 17 17 17 16 16 16 16 16 16 16 16 16 16 16 16 16 16 16 15 15 15 15
19 19 19 19 18 18 18 18 17 17 17 17 17 17 17 18 17 17 17 17 17 17 17 16 17 16 16 16 16 16 16 16 16 16 16 16 15 15 15 15 15 15 15
19 19 19 19 18 18 18 18 18 17 17 17 17 17 17 17 18 17 17 17 17 17 17 16 16 16 16 16 15 16 15 15 15 16 16 15 16 16 16 16 16 15 15
19 19 19 19 19 18 18 18 18 18 17 17 17 17 17 17 17 17 18 17 17 17 17 17 16 16 16 16 15 15 15 15 15 15 15 15 15 15 15 15 15 15 15
19 19 19 19 19 19 18 18 18 18 18 17 18 17 17 16 16 16 17 17 17 16 17 17 16 16 16 16 16 15 15 15 15 15 14 14 14 14 14 14 14 14 14
20 20 20 19 19 19 19 18 18 18 18 19 18 18 17 17 17 17 17 16 16 16 16 16 17 16 16 16 16 15 15 15 15 15 14 14 14 14 14 14 14 14 14
21 21 20 20 20 19 19 19 19 19 19 19 19 19 18 17 17 17 17 16 16 16 17 17 16 16 16 16 16 16 15 15 15 15 15 15 14 14 14 14 14 14 13
21 21 21 20 20 20 20 19 19 19 19 19 19 19 18 18 17 17 17 16 16 17 17 17 16 16 16 16 16 16 16 15 15 15 15 15 15 15 15 14 14 14 14
21 20 21 20 20 20 20 19 19 19 20 20 20 20 19 19 18 17 17 16 16 16 17 16 16 16 16 16 16 16 15 15 15 15 15 15 14 14 14 14 14 14 14
21 20 20 21 20 20 20 20 19 19 20 20 20 21 20 20 19 18 18 17 16 16 16 16 16 16 16 16 16 16 15 15 15 15 15 15 15 14 14 14 14 14 14
22 21 20 20 20 20 20 20 20 19 20 20 21 20 21 20 20 20 19 18 17 16 15 15 15 16 16 16 16 15 15 15 15 15 15 15 14 14 13 13 13 13 14
23 22 21 21 20 20 20 20 20 20 20 20 21 21 21 20 19 19 19 18 18 17 16 15 15 15 16 15 15 15 15 15 15 15 15 14 14 14 14 14 13 13 13
23 23 22 21 21 21 21 21 21 20 20 20 20 20 19 18 19 19 18 18 17 17 16 15 15 14 15 14 15 15 14 14 15 14 15 14 14 14 13 13 13 13 13
24 24 23 22 22 21 21 21 21 21 20 20 20 20 19 19 18 18 17 17 17 16 16 14 14 14 14 14 14 14 14 14 13 14 14 14 13 12 12 12 12 12 11
24 24 23 22 22 22 22 22 21 21 21 20 20 20 19 19 18 17 17 16 16 16 15 14 14 14 14 15 14 14 13 13 14 13 13 13 12 12 12 11 11 12 11
25 24 24 23 22 23 23 23 22 21 21 20 20 20 19 19 18 17 16 16 16 15 15 15 15 15 14 15 14 14 14 13 13 12 12 12 12 11 11 11 11 11 11
25 25 25 24 23 23 23 23 22 21 20 20 20 20 19 19 18 18 17 16 15 15 16 15 15 15 14 14 14 14 14 13 13 12 11 11 11 11 10 10 11 11 10
24 25 25 24 24 24 24 24 22 21 20 20 20 20 19 19 18 18 16 15 15 15 15 15 14 14 14 14 14 13 13 13 12 12 10 10 10 10 10 9 9 10 10
25 25 25 25 24 24 24 24 23 21 21 20 20 19 19 18 18 17 16 15 15 16 15 15 14 14 14 14 13 13 12 11 12 11 10 9 10 9 10 10 8 8 8

GFSMA_850_temp_024.txt.gz
Temp
18 18 18 18 18 18 19 17 17 18 18 17 18 18 19 18 18 19 18 17 17 16 17 17 17 17 16 16 16 17 17 17 16 16 16 16 16 16 16 16 16 16 16
18 18 18 18 18 18 18 18 17 17 19 18 18 18 18 18 17 18 18 17 17 17 17 17 16 17 17 17 17 16 16 16 16 16 16 16 16 16 16 16 16 16 16
19 19 18 18 18 18 18 17 17 18 18 18 18 18 19 18 18 18 18 18 17 17 17 17 17 16 16 17 17 16 16 16 16 16 16 16 16 16 16 16 16 16 16
19 19 18 18 18 18 17 17 17 17 19 19 18 18 18 18 18 18 18 18 18 18 17 17 16 17 17 16 16 16 17 17 17 17 16 16 16 17 17 16 16 16 16
19 19 18 18 18 18 17 17 17 17 18 18 18 18 18 18 18 18 18 18 17 18 18 17 17 17 16 16 16 16 16 16 17 16 16 16 16 16 16 17 17 16 16
19 19 18 18 18 18 17 17 17 17 18 18 19 18 18 18 18 18 18 18 17 18 18 17 16 16 16 16 16 16 16 16 16 16 16 16 16 16 16 16 16 16 16
19 19 18 18 18 18 17 18 17 17 18 17 18 19 18 18 18 18 18 18 17 18 17 17 17 16 16 16 16 16 16 16 16 16 16 16 16 16 16 16 16 16 16
20 20 19 18 18 18 18 17 18 18 18 18 19 20 20 19 18 18 18 18 17 18 17 16 16 16 16 16 16 16 17 17 16 16 16 16 16 16 15 15 15 15 16
20 20 19 19 18 18 18 18 17 17 19 17 18 19 20 21 20 18 17 18 17 18 17 16 16 15 15 15 15 16 16 16 17 17 16 16 16 16 16 16 15 15 15
20 19 20 19 19 18 18 18 17 18 18 18 17 17 18 18 20 20 18 18 17 17 17 17 17 16 15 16 16 16 16 16 16 16 16 16 16 16 16 16 16 16 16
20 18 19 19 19 19 18 18 18 18 17 18 19 18 17 18 18 19 20 19 17 18 17 17 17 17 16 16 16 15 15 15 15 15 15 15 15 15 15 15 15 15 15
19 18 18 19 19 18 18 18 18 18 18 18 18 18 19 19 19 19 20 19 19 19 18 17 17 17 17 16 16 16 15 15 15 15 15 15 15 15 15 15 15 14 14
20 20 19 20 19 19 19 19 18 18 19 19 19 18 18 18 18 19 19 20 19 19 18 18 18 17 17 16 16 16 15 15 15 15 15 15 15 14 14 14 14 14 14
21 20 19 20 20 19 20 19 18 18 18 20 20 19 18 18 18 18 18 19 19 19 18 18 18 17 17 16 16 16 16 16 16 16 16 16 15 15 15 15 14 14 14
21 19 19 20 19 20 20 19 19 19 19 20 20 21 20 18 18 18 18 18 19 20 20 18 18 17 17 17 16 16 16 15 16 16 15 15 15 15 15 15 15 14 14
21 20 19 20 19 20 20 20 19 19 20 20 19 20 21 19 18 18 18 18 18 19 20 19 18 18 17 17 16 16 15 16 16 16 15 15 15 15 15 14 14 14 14
21 22 21 21 20 20 21 20 20 19 21 21 20 20 21 19 18 18 17 18 18 18 18 19 18 17 16 16 16 16 15 15 16 15 15 15 15 16 15 15 14 14 14
23 22 22 21 21 20 20 21 21 19 20 21 20 20 19 18 20 19 17 17 17 17 17 17 18 17 16 16 15 15 15 16 16 16 15 15 15 16 15 14 14 14 14
24 23 22 22 21 21 20 21 21 21 20 21 20 20 18 19 20 18 18 17 17 16 16 17 17 17 17 16 15 15 14 14 15 15 15 15 15 15 15 14 14 14 14
24 24 23 23 22 21 20 21 21 21 20 20 21 20 18 18 20 20 19 19 17 17 16 16 17 17 17 16 15 16 16 16 15 15 15 15 14 14 14 14 13 13 12
25 25 24 23 23 22 20 21 22 22 21 21 21 21 19 18 20 19 19 18 17 17 17 17 17 17 17 17 16 16 17 16 16 15 14 14 14 14 13 13 13 13 12
25 25 25 24 23 22 21 22 23 22 22 22 21 21 20 19 20 19 19 18 18 17 16 17 17 18 17 16 16 16 16 16 16 15 14 15 15 15 14 14 14 13 12
22 24 24 24 24 24 23 23 24 23 23 22 22 20 18 18 20 19 19 18 17 17 17 15 15 16 16 15 15 15 14 14 15 15 14 14 14 15 14 14 13 12 11
22 24 24 24 24 24 24 23 23 23 22 20 20 19 18 18 20 20 19 18 17 17 16 16 15 15 15 14 14 14 14 14 13 14 13 13 14 14 13 13 12 11 10
21 22 22 24 25 25 25 24 23 22 21 19 19 18 18 18 20 20 19 18 16 16 15 16 16 14 14 15 14 14 14 14 15 15 14 13 13 13 12 12 12 11 10
23 20 19 23 25 25 25 25 24 22 21 21 19 19 20 19 20 20 19 18 16 16 15 15 16 15 14 15 14 14 14 14 14 15 14 12 13 12 12 12 11 11 10

GFSMA_850_temp_027.txt.gz
Temp
19 19 19 19 19 19 18 19 19 19 19 18 19 19 20 20 20 19 18 18 18 17 17 17 17 17 17 17 16 17 17 17 17 16 16 16 17 16 16 16 16 16 16
19 19 19 19 19 19 18 19 18 18 19 19 19 19 20 19 19 19 19 19 18 18 18 17 17 17 17 17 17 17 17 17 16 16 16 16 16 16 16 16 16 16 16
19 19 19 20 19 19 19 18 18 18 19 20 19 19 19 19 19 19 19 18 18 18 18 18 17 17 17 17 17 17 17 17 17 17 17 17 17 16 16 16 16 17 16
18 19 19 19 18 19 19 18 18 20 20 20 20 20 20 20 19 19 19 18 18 17 18 18 17 17 17 16 17 17 17 17 17 16 17 17 17 17 17 17 16 16 17
18 19 19 19 19 18 19 19 19 19 20 20 20 20 20 20 20 19 19 19 18 17 17 18 18 17 17 16 16 16 16 16 16 16 16 16 16 16 16 16 17 17 16
19 18 19 19 19 18 19 18 19 19 19 20 21 20 20 19 20 19 19 20 19 18 18 17 18 17 17 17 16 16 16 16 17 17 17 16 16 16 16 16 16 16 16
18 18 19 18 19 19 19 18 18 19 19 19 20 20 19 19 20 20 20 20 19 19 19 18 17 16 16 17 17 16 17 16 16 16 16 16 16 16 16 16 16 16 16
18 19 19 19 19 19 19 17 18 19 20 19 20 21 21 20 20 20 20 19 19 19 18 18 17 17 16 17 17 17 17 17 16 16 16 16 16 16 15 15 16 16 16
19 19 18 19 19 19 19 18 18 19 19 19 19 20 21 20 21 19 19 19 18 19 18 17 17 16 16 16 16 16 16 16 17 17 17 16 16 16 16 16 16 15 15
19 19 18 18 18 19 19 19 18 19 19 20 19 19 19 19 21 20 20 19 18 18 18 18 17 17 16 17 16 16 16 16 16 16 16 16 16 16 17 17 17 17 17
19 19 19 19 18 19 19 19 18 19 19 20 20 20 19 20 19 20 20 19 19 19 19 18 19 18 17 17 16 16 16 16 16 15 16 16 16 16 15 16 16 16 16
20 19 19 19 18 19 19 19 18 18 18 19 20 20 20 20 20 20 21 20 20 19 19 19 18 18 18 17 17 16 16 16 16 15 15 15 15 15 15 15 15 14 14
21 21 20 19 19 20 19 19 19 18 19 18 20 19 20 20 20 21 21 21 21 20 19 19 19 18 18 18 17 17 16 16 16 15 15 15 15 15 15 15 15 15 15
22 22 21 20 19 19 19 19 19 18 18 19 19 20 20 20 20 20 20 21 21 21 20 19 19 19 18 18 17 17 16 16 16 16 16 16 16 16 15 15 15 14 14
23 22 21 20 19 19 19 19 19 19 19 19 18 20 20 20 20 20 20 20 20 21 21 19 19 19 18 18 17 16 16 16 16 16 16 16 16 16 16 16 15 15 14
21 22 21 20 19 19 19 19 19 19 19 19 18 19 20 19 20 19 20 20 20 20 21 21 19 19 18 18 17 17 16 16 16 16 16 16 16 16 16 16 15 15 14
21 22 21 21 20 20 19 19 19 20 19 20 19 19 19 20 20 20 19 19 19 19 20 20 20 19 18 18 17 16 16 16 16 16 16 16 16 16 16 16 16 15 14
22 21 22 20 21 21 20 19 20 20 19 20 18 18 18 21 21 20 19 19 19 19 19 19 19 19 18 17 17 16 15 17 17 17 16 16 16 15 16 16 15 15 14
24 23 21 21 21 21 21 21 21 21 20 20 19 18 19 19 21 20 20 19 18 18 18 18 19 18 18 17 16 16 16 15 16 16 16 16 16 15 15 15 15 15 14
25 24 23 22 22 22 22 22 22 22 22 21 21 20 19 19 21 21 20 20 19 18 17 18 18 19 19 18 17 17 17 16 16 16 16 15 16 15 15 15 15 15 13
25 25 25 23 23 22 21 21 21 21 22 22 21 20 19 18 19 21 21 20 19 18 18 18 18 18 19 19 18 17 17 17 17 16 16 16 15 15 15 15 15 14 14
26 26 25 25 24 24 22 21 21 21 21 20 20 19 20 19 18 19 21 20 20 19 18 18 19 19 19 18 18 18 17 17 17 16 16 15 15 16 16 16 15 14 13
22 24 25 25 25 25 24 24 22 21 21 21 20 19 19 19 19 19 20 20 19 19 19 18 18 19 18 17 17 17 16 16 16 15 15 14 15 15 15 15 15 14 13
22 21 22 23 24 25 25 25 24 22 21 20 20 20 20 20 19 19 20 20 20 19 19 18 17 17 17 17 16 16 15 15 14 15 15 14 15 15 15 14 14 13 12
21 22 21 21 22 25 25 25 24 23 22 21 21 20 19 19 20 19 20 20 20 20 19 19 17 16 16 16 17 16 14 14 15 15 15 15 15 14 14 14 13 13 12
21 21 21 22 23 25 24 24 25 22 22 22 21 20 20 20 19 19 20 20 19 20 19 19 17 16 16 15 16 16 15 15 15 15 16 15 15 14 14 14 13 13 12

GFSMA_850_temp_030.txt.gz
Temp
19 19 19 19 19 19 19 18 19 19 18 19 20 20 20 20 18 19 19 19 19 19 18 18 18 17 17 17 17 17 17 17 16 16 16 16 17 16 16 16 16 16 16
19 20 19 18 19 19 19 18 19 20 19 19 19 19 20 20 19 19 18 19 19 18 18 18 17 17 17 17 17 17 17 17 17 16 16 16 16 16 16 16 16 16 16
19 20 19 19 18 18 19 19 20 19 19 19 20 20 20 19 19 19 19 18 18 18 18 17 17 17 17 17 16 16 17 17 17 17 16 17 16 16 16 16 16 16 16
19 20 20 20 20 19 20 19 20 18 20 19 20 20 20 20 19 19 19 18 18 17 18 18 17 17 17 16 16 16 16 16 17 16 16 16 16 16 16 16 16 16 16
20 19 20 20 19 19 19 19 20 19 20 20 20 20 20 20 19 19 19 19 18 18 18 18 18 17 17 17 17 17 17 17 17 16 16 16 16 16 16 16 16 16 16
20 20 19 19 19 19 19 19 19 19 20 20 21 20 20 20 20 20 19 19 19 18 18 18 18 17 17 17 17 17 16 16 16 16 16 16 16 16 16 16 16 16 16
20 20 19 19 19 20 19 20 19 19 19 20 21 20 20 20 20 20 20 20 19 18 18 18 17 17 17 17 17 17 17 16 16 16 16 16 16 16 16 16 16 16 16
19 20 20 19 19 19 20 20 19 19 20 20 20 20 20 20 20 20 20 19 19 19 18 17 17 17 16 16 17 17 17 17 17 17 17 16 16 16 16 16 16 16 16
19 19 19 20 19 19 19 20 20 19 19 20 20 19 20 20 20 20 20 19 19 19 18 18 17 16 16 16 17 17 17 17 17 17 17 17 17 17 16 16 16 16 16
19 19 19 20 19 19 19 19 20 19 19 19 21 20 19 19 20 19 20 19 19 19 18 18 18 18 16 17 17 17 17 17 17 16 16 16 16 16 16 16 16 16 16
20 20 19 19 20 20 19 19 19 19 20 19 20 20 20 20 20 20 20 19 19 19 19 19 18 18 17 17 17 17 17 16 16 16 16 16 16 16 16 16 16 16 16
20 20 19 19 19 20 19 19 19 20 20 20 20 20 20 20 20 20 20 20 20 19 19 19 19 18 18 17 17 17 17 17 16 16 16 16 16 16 16 15 15 15 15
20 21 20 19 20 20 19 19 20 20 20 20 20 20 20 20 21 21 21 20 20 20 19 19 19 19 18 18 18 17 17 17 16 16 16 16 16 16 16 16 15 15 15
22 21 21 21 21 21 20 19 20 19 19 20 21 20 20 20 20 20 20 20 21 20 20 20 19 19 19 18 18 17 17 17 16 16 16 16 16 16 16 16 15 15 14
22 22 22 22 21 20 21 20 20 20 19 19 21 21 20 20 20 20 20 20 20 20 20 20 19 19 19 18 18 17 17 17 16 16 16 16 16 16 16 16 15 15 15
22 23 22 22 21 21 20 20 20 20 19 19 20 21 22 21 20 20 20 20 20 20 20 20 20 19 19 18 18 18 17 17 16 16 17 17 16 16 16 16 16 16 15
21 22 21 21 22 21 21 20 20 20 20 20 19 19 21 22 21 20 20 20 20 20 20 20 20 19 19 19 18 17 17 16 16 17 16 16 16 16 16 16 16 16 16
22 21 22 21 21 21 21 21 21 20 20 20 20 20 20 21 21 21 20 20 20 19 19 20 20 19 19 19 18 18 17 16 16 16 16 16 16 16 16 16 15 15 15
22 23 22 22 21 21 22 22 21 21 21 20 20 20 20 21 22 21 21 20 20 19 19 19 19 19 19 18 18 17 17 17 17 17 17 16 16 16 16 16 16 15 15
24 23 23 22 22 22 22 22 22 22 22 22 20 19 20 20 21 22 21 21 20 20 19 19 19 19 18 18 18 18 18 17 17 17 16 16 16 16 16 16 15 15 14
24 25 24 24 23 22 23 23 22 22 22 22 22 20 19 20 21 22 22 22 22 20 19 19 18 18 18 18 18 18 17 17 17 17 16 16 16 16 16 16 15 15 14
23 23 24 24 24 24 24 24 24 23 22 22 22 21 20 20 21 21 22 21 21 21 20 20 19 19 19 19 19 19 17 17 17 16 17 16 16 15 15 15 15 15 14
22 23 22 23 24 24 25 25 25 24 23 22 22 22 21 21 20 20 20 21 21 20 20 21 20 19 19 19 19 18 18 17 17 16 16 15 15 15 15 15 15 14 14
22 22 22 23 22 24 25 25 25 24 23 22 22 22 22 21 20 20 20 20 20 20 20 20 20 20 19 19 18 18 17 17 17 17 16 15 16 15 15 15 14 14 13
21 22 22 21 22 24 23 23 22 22 22 22 22 22 21 21 21 20 19 20 21 20 20 20 20 20 19 18 18 17 17 17 17 17 16 15 15 15 15 14 14 14 13
21 21 21 22 22 22 21 21 20 20 21 22 21 21 21 21 21 21 19 19 19 20 20 20 19 18 18 17 16 16 16 16 16 15 16 15 15 15 14 14 14 14 13

GFSMA_850_temp_033.txt.gz
Temp
19 19 18 18 19 19 19 19 19 19 19 20 20 19 19 19 18 18 19 18 18 18 18 18 17 17 17 17 17 17 17 17 16 16 16 16 16 16 16 16 16 16 16
19 18 18 19 19 19 19 19 19 19 19 19 19 19 19 19 19 19 19 19 18 18 18 17 17 17 17 17 17 17 17 17 17 16 16 16 16 16 16 16 16 16 16
19 19 19 19 19 19 19 19 19 19 19 19 20 20 20 19 19 19 18 18 19 18 18 18 17 17 17 17 17 17 17 17 17 17 16 16 16 16 16 16 16 16 16
19 19 19 19 19 20 19 19 19 19 19 20 19 19 19 19 19 19 19 19 18 18 18 18 17 17 17 17 17 17 17 17 16 16 16 17 17 16 16 16 16 16 16
20 19 19 19 19 19 19 19 19 20 20 20 20 20 19 19 19 19 19 19 18 18 18 18 18 17 17 17 17 17 17 17 16 16 17 17 16 16 16 16 16 16 16
20 19 18 19 19 19 19 19 20 20 20 20 20 20 20 20 19 19 19 19 19 18 18 18 17 17 17 17 16 16 16 16 16 17 17 17 16 16 16 16 16 16 16
20 20 19 19 19 19 19 19 20 19 20 20 20 20 20 20 20 19 19 19 19 18 17 18 17 17 17 17 17 17 16 17 17 16 16 16 16 16 16 16 16 16 16
20 20 20 19 19 19 19 19 19 19 20 20 20 20 20 20 20 19 19 19 18 18 18 17 17 17 17 16 17 17 17 17 17 17 17 16 16 16 16 16 16 16 15
20 20 20 19 19 19 19 20 19 19 20 20 19 19 19 20 19 19 19 19 19 18 18 18 17 17 17 17 17 17 17 17 17 17 17 17 17 17 17 16 16 16 16
20 20 20 19 19 19 19 19 20 19 20 20 20 19 20 20 20 19 19 19 19 19 18 18 18 17 17 17 17 17 17 17 17 17 16 17 17 16 16 16 16 16 16
20 20 20 19 19 19 20 19 19 19 19 19 19 20 20 20 20 19 19 19 19 19 18 18 18 18 17 17 17 17 17 17 16 16 16 16 16 16 16 16 16 16 15
20 20 20 19 19 20 20 20 19 20 19 19 19 20 20 20 20 20 20 19 19 19 19 19 19 18 18 17 17 17 17 17 17 17 16 16 16 16 16 16 16 15 15
20 20 20 19 20 20 20 20 19 20 20 20 19 20 20 20 20 20 20 20 20 19 19 19 19 19 18 18 17 17 17 17 17 17 17 16 16 16 16 15 15 15 15
21 21 21 20 20 20 20 20 20 20 20 20 20 20 20 20 20 20 20 20 20 20 19 20 19 19 19 18 18 18 17 17 17 17 17 16 16 16 16 16 15 15 15
21 21 21 21 21 21 20 21 21 20 20 20 21 21 21 20 20 20 20 20 20 20 19 19 20 19 19 19 18 18 18 17 17 17 16 16 16 16 16 16 16 16 16
21 21 21 22 21 21 21 20 20 21 20 20 21 21 21 21 20 20 20 20 20 20 20 20 20 20 19 19 18 18 18 17 17 17 17 17 16 16 16 16 16 16 16
21 21 22 21 22 22 21 21 21 20 20 20 20 21 21 21 20 20 20 20 21 20 20 20 20 19 19 19 19 18 18 17 17 17 17 16 16 16 16 16 16 15 15
21 22 22 22 21 21 21 21 22 21 20 20 20 20 21 21 21 21 21 20 20 20 21 21 20 19 19 19 19 18 18 18 17 17 16 16 16 16 16 16 16 16 15
23 22 21 22 22 21 21 21 21 22 22 21 21 20 20 21 21 22 21 21 20 20 20 20 20 20 19 19 18 18 18 18 17 17 17 16 16 16 16 16 16 15 15
23 23 22 21 21 21 21 21 21 22 22 22 21 21 20 20 21 22 22 21 20 20 20 20 20 19 19 19 18 18 18 18 18 17 17 17 17 17 16 16 15 15 15
23 23 23 23 22 21 21 22 22 22 22 22 22 22 21 22 22 22 22 22 21 20 20 20 20 20 19 19 19 19 18 18 18 17 17 17 16 16 16 16 15 15 15
25 24 24 23 23 22 22 22 22 22 22 22 23 23 22 22 22 22 21 21 21 21 20 20 21 20 20 20 19 19 18 18 17 18 17 17 16 16 16 15 15 16 15
24 24 24 24 23 24 23 22 22 22 22 23 23 23 23 22 22 21 21 20 20 21 20 21 20 21 21 21 20 19 18 18 18 17 17 17 16 15 15 15 15 15 15
24 24 25 24 23 24 24 23 22 21 21 21 22 23 23 23 23 22 22 21 19 20 20 20 19 20 20 20 19 19 19 18 18 17 17 17 17 16 15 15 15 15 14
23 23 23 23 23 23 22 22 21 21 20 20 20 20 21 22 22 22 21 20 20 20 20 19 19 20 20 19 18 18 18 18 17 17 17 17 17 16 15 15 14 15 14
24 24 23 23 23 22 21 21 20 20 20 20 20 20 20 20 19 20 20 20 20 20 20 20 19 19 19 19 18 18 18 18 17 17 17 17 17 15 15 15 14 14 14

GFSMA_850_temp_036.txt.gz
Temp
19 19 19 19 19 19 18 18 19 19 19 19 19 19 19 18 18 18 18 18 18 17 17 17 17 17 17 18 17 17 16 16 16 16 16 16 16 16 16 16 16 16 16
19 19 19 19 19 19 19 18 19 19 19 19 19 19 19 18 18 18 19 18 18 18 17 17 17 17 17 17 17 17 17 17 16 16 16 16 16 16 16 16 16 16 16
19 19 19 19 19 19 19 18 19 19 19 20 18 19 19 18 18 18 19 18 18 18 18 17 17 17 17 17 17 17 17 17 17 17 16 16 16 16 16 16 16 16 16
20 19 19 19 19 19 19 18 19 19 19 19 19 19 19 19 19 18 19 18 18 18 18 17 17 17 17 17 16 17 17 16 16 16 16 16 16 16 16 16 16 16 16
20 20 19 19 19 19 19 19 19 19 19 19 19 19 19 19 19 19 18 18 18 18 18 17 17 16 16 16 17 17 17 17 17 17 17 17 16 16 16 16 16 16 16
20 20 19 19 19 19 19 19 19 19 20 19 19 19 19 19 19 19 18 18 18 18 18 17 17 17 17 17 16 16 16 16 16 16 16 16 16 16 16 16 16 15 16
20 20 20 19 19 19 19 19 19 19 20 19 19 19 19 19 19 19 18 18 18 18 17 17 17 17 17 17 16 17 17 17 16 16 16 16 16 16 15 15 15 15 15
20 20 20 19 19 19 19 19 19 19 19 19 20 19 19 19 19 19 19 18 18 18 18 18 17 17 16 17 17 17 17 17 17 16 16 16 16 16 16 15 15 15 15
20 20 20 19 19 19 19 19 19 19 19 19 19 20 19 19 19 18 18 18 18 18 18 18 18 17 17 17 17 17 17 17 17 17 16 16 16 16 16 16 16 16 16
20 20 20 20 19 19 19 19 19 19 20 19 19 19 20 19 19 19 19 19 18 18 18 18 18 18 17 17 17 17 17 17 17 17 16 16 16 16 16 16 15 15 15
19 20 19 20 19 19 19 19 19 19 19 19 20 19 19 19 19 20 19 18 18 18 18 18 18 18 18 17 17 17 17 17 17 17 16 16 16 16 16 15 15 15 15
20 20 19 20 19 19 19 19 19 19 19 19 19 20 20 20 20 20 20 19 19 19 19 18 18 18 18 18 17 17 17 17 17 17 17 17 16 16 16 16 15 15 15
20 20 20 20 20 19 19 19 19 19 19 19 19 19 19 20 20 20 20 20 20 19 19 19 18 18 18 18 18 17 17 17 17 17 17 17 16 16 16 16 16 15 15
20 20 20 20 20 20 19 20 19 19 20 19 19 19 20 20 20 20 20 20 20 20 19 19 19 19 19 18 18 17 17 17 17 17 17 17 17 16 16 16 16 16 15
20 20 20 20 20 20 20 20 20 19 19 19 20 20 20 20 20 20 20 20 20 20 20 20 19 20 19 19 18 18 18 17 17 17 17 17 17 17 16 16 16 16 15
20 20 21 20 20 20 20 20 20 20 19 20 20 21 21 21 20 20 20 20 20 20 20 20 20 20 20 19 19 18 18 18 17 17 17 17 17 17 17 16 16 16 15
21 20 20 21 21 21 21 20 20 20 20 20 20 20 21 22 21 21 21 20 20 20 20 20 20 20 20 19 19 19 18 18 18 17 17 16 16 16 16 16 16 15 15
21 20 20 21 21 21 21 21 21 21 20 20 21 20 21 21 22 21 21 21 21 20 20 21 21 20 20 19 19 19 18 18 18 17 17 17 16 16 16 16 16 15 15
21 20 20 21 21 21 21 21 21 21 21 21 21 21 22 21 21 22 22 21 21 21 20 20 20 20 20 19 19 19 18 18 18 18 17 16 16 16 16 16 16 15 15
22 22 21 21 21 21 21 21 21 21 21 21 22 21 21 22 22 21 21 21 21 20 20 20 20 20 20 20 19 19 18 18 18 18 18 18 17 16 16 16 16 15 15
24 23 22 21 21 21 21 21 21 21 21 21 22 22 22 22 22 22 22 21 20 20 20 20 19 19 19 19 19 19 18 18 18 18 18 17 17 17 16 16 16 15 15
24 24 23 23 23 22 22 21 21 21 21 21 21 22 22 22 22 22 21 22 22 20 20 20 20 19 20 20 20 19 19 18 18 18 18 18 17 17 17 17 16 15 15
25 25 24 24 24 23 23 22 22 22 21 21 21 21 22 22 22 22 22 21 21 21 20 20 20 20 20 21 21 20 19 19 19 19 18 18 18 18 18 17 16 16 15
25 25 25 25 25 24 24 23 22 22 21 21 21 21 21 22 22 22 22 21 21 21 21 21 20 21 20 20 20 20 20 20 19 19 19 18 18 17 17 17 16 16 14
25 25 25 25 24 24 23 23 22 21 20 20 20 21 21 22 21 20 20 20 20 21 21 21 21 20 20 20 19 19 18 19 18 19 18 18 18 17 17 17 16 16 15
26 25 25 25 24 24 23 22 21 20 21 20 20 20 20 19 19 19 19 19 19 20 19 19 20 20 20 19 19 18 18 18 18 18 18 17 17 17 16 16 16 15 15

GFSMA_850_temp_042.txt.gz
Temp
19 18 18 18 18 18 18 18 18 19 19 19 19 19 18 18 18 18 17 17 16 16 17 17 17 17 17 17 17 16 16 17 17 16 16 16 16 16 16 16 16 16 15
19 18 18 18 18 18 18 18 18 19 19 19 19 18 18 18 18 17 17 17 16 16 16 17 17 17 17 17 17 17 16 16 16 16 16 16 16 16 16 16 16 16 15
18 18 18 18 18 18 18 18 18 18 19 18 18 18 18 18 18 17 17 17 17 16 16 16 16 17 17 17 16 16 17 17 16 16 16 16 16 16 15 16 16 15 16
18 18 18 18 18 19 19 19 18 18 18 18 18 18 18 18 18 17 17 17 17 17 17 16 16 16 16 16 16 16 16 16 16 16 16 16 16 16 16 16 16 16 15
19 19 18 18 18 19 19 18 18 18 19 19 19 18 18 18 18 18 17 17 17 17 17 17 16 16 16 16 16 16 16 16 16 16 16 16 16 16 16 16 16 15 16
19 18 18 18 18 18 18 18 19 19 19 19 19 18 18 18 18 18 17 17 17 17 17 16 16 16 16 16 16 16 16 16 16 16 16 16 16 16 16 16 15 15 15
19 19 19 19 19 18 18 18 19 19 19 19 19 18 19 18 18 18 18 17 17 17 17 16 16 16 16 16 17 16 16 17 17 16 16 16 16 16 16 16 16 16 15
19 19 19 19 19 19 18 18 18 19 19 19 19 19 18 18 18 18 18 18 17 17 17 17 16 16 16 17 17 17 17 17 17 17 17 16 16 17 16 16 16 17 17
19 19 19 19 19 18 18 18 18 19 19 19 19 19 19 19 19 19 18 18 18 18 17 17 17 17 17 17 17 17 17 17 17 17 17 17 17 17 17 17 17 16 16
19 19 19 19 19 19 18 18 18 19 18 19 19 19 19 19 19 19 19 18 18 18 18 18 17 17 17 17 17 16 17 17 17 17 17 17 17 17 17 17 16 16 16
19 19 19 19 19 19 18 18 18 19 19 19 19 19 19 19 19 19 19 19 19 19 18 18 18 17 17 17 17 17 16 17 17 17 16 16 16 16 16 16 16 16 15
19 19 19 19 19 18 18 18 18 19 19 19 19 19 19 19 19 19 19 19 19 19 19 18 18 18 18 17 17 17 17 16 17 17 17 17 17 17 16 16 16 15 15
20 20 19 19 19 19 19 18 19 19 19 19 19 19 19 19 19 19 19 19 19 20 20 20 19 19 18 18 18 18 17 17 17 17 17 17 17 17 16 16 16 15 15
21 20 19 19 19 19 19 18 19 19 19 19 19 19 19 19 19 19 19 19 19 19 20 20 20 20 19 19 19 18 18 18 17 17 17 17 17 17 16 16 16 16 15
21 20 20 19 19 19 19 19 19 19 19 19 19 19 19 19 19 19 19 19 19 19 19 21 20 20 20 20 19 19 19 18 18 17 17 17 17 17 17 16 16 16 15
20 20 20 20 19 19 19 19 19 19 19 19 19 19 19 19 19 19 19 19 19 19 19 20 21 20 21 20 20 20 19 19 18 18 18 17 17 17 17 16 16 16 15
20 21 20 20 20 19 19 19 19 19 19 20 20 20 20 20 20 19 19 19 19 19 19 21 21 21 21 21 20 20 20 19 19 19 18 18 17 17 17 16 16 16 15
21 21 20 20 20 20 20 20 19 19 20 20 20 20 20 20 20 21 20 21 20 20 20 21 21 22 21 21 21 20 20 20 20 20 19 18 18 17 17 16 16 16 16
21 21 20 21 20 20 20 20 20 20 20 20 20 20 20 20 21 21 21 21 21 21 21 21 22 22 22 22 21 21 21 20 20 20 20 19 18 18 17 17 16 16 16
21 21 21 21 21 21 21 20 20 20 20 20 20 20 20 20 21 21 21 21 21 21 20 20 20 20 21 21 21 21 21 21 20 20 20 20 19 19 18 17 17 16 16
22 22 21 22 21 21 21 21 21 21 21 21 21 21 21 21 22 21 21 22 22 21 21 21 21 21 21 21 21 21 20 20 20 20 20 20 20 19 19 18 18 18 17
22 22 22 22 22 22 22 22 22 22 22 21 22 22 22 22 22 22 22 21 21 20 20 20 20 20 20 20 20 20 20 20 19 20 20 21 20 20 20 19 19 18 18
23 22 22 23 23 23 23 23 23 22 22 22 22 22 22 22 22 22 22 21 21 20 20 19 19 20 20 20 20 19 19 19 19 19 18 18 18 19 19 19 19 19 18
23 23 23 23 23 24 24 24 23 22 22 22 22 22 22 22 22 22 21 21 21 21 20 19 19 19 19 19 18 18 18 18 18 18 18 17 18 18 19 19 19 20 18
24 24 24 24 24 24 24 24 23 22 22 23 22 22 22 21 21 21 20 20 21 20 19 20 20 20 19 19 19 18 18 17 18 18 18 17 19 19 18 18 19 19 19
24 23 23 24 24 24 24 23 22 21 21 21 22 21 21 21 20 20 20 19 19 20 20 20 20 20 20 20 20 19 19 19 19 17 20 17 19 17 15 18 17 16 17

GFSMA_850_temp_045.txt.gz
Temp
18 18 18 18 18 17 18 18 18 19 19 19 19 18 17 18 18 17 15 17 17 17 16 17 16 17 17 17 16 16 16 16 16 16 16 16 16 16 16 16 16 16 16
18 18 17 18 18 18 18 18 18 19 19 19 18 18 18 18 17 17 16 17 17 16 16 16 16 17 17 17 17 16 16 16 16 16 16 16 16 16 16 16 16 16 16
18 18 18 18 18 18 18 18 18 19 19 18 18 18 18 18 17 17 17 17 16 16 16 16 16 16 16 16 17 17 17 17 17 17 16 16 16 16 17 16 16 16 16
18 18 18 18 18 18 18 18 19 19 18 18 18 18 18 18 17 17 17 17 17 16 16 16 16 16 16 16 16 16 16 16 16 16 16 16 16 16 16 16 16 16 16
18 18 18 18 18 18 18 18 19 19 18 18 18 18 18 18 18 17 17 17 17 17 16 16 16 16 16 16 16 16 16 16 16 16 16 16 16 16 16 16 16 16 16
18 18 18 18 18 18 18 18 19 19 19 19 18 18 18 18 18 18 18 17 17 17 17 16 16 16 16 16 16 16 16 16 16 16 16 16 16 16 16 16 16 16 16
19 18 18 18 18 18 19 18 19 19 19 19 19 18 19 19 18 18 18 18 17 17 17 17 16 16 16 17 17 17 16 17 16 16 16 16 16 16 16 16 16 16 16
19 19 19 18 18 18 18 18 19 19 19 19 19 19 19 18 18 18 18 18 18 17 17 17 16 16 17 17 17 17 17 17 17 17 17 16 16 16 16 16 16 16 16
19 19 19 18 18 18 18 18 19 19 19 19 19 19 19 20 19 19 19 18 18 18 17 17 17 17 17 17 17 17 17 17 17 17 17 17 17 17 17 17 16 16 16
19 19 19 19 18 18 18 18 19 19 19 19 19 19 19 19 19 19 19 19 19 18 18 18 17 17 17 17 17 17 17 17 17 17 17 17 17 17 17 16 16 16 15
19 19 19 19 18 18 18 18 18 19 19 19 19 19 19 19 19 19 20 19 19 19 18 18 18 18 17 17 17 17 17 17 18 18 18 18 17 17 17 17 16 16 16
19 19 19 19 19 19 19 18 18 18 19 19 19 19 19 19 19 19 19 19 19 20 19 19 19 18 18 18 18 17 17 17 18 18 18 17 17 17 17 16 16 16 16
20 20 19 19 19 19 19 19 18 18 18 19 19 19 19 19 19 19 19 19 19 19 20 20 20 19 19 19 18 18 18 18 17 17 17 18 17 17 17 16 16 16 16
20 20 20 20 20 19 19 19 19 18 19 19 19 19 19 19 19 19 19 18 19 19 20 20 20 20 20 19 19 19 19 18 18 18 17 17 17 17 17 16 16 16 16
20 20 20 20 20 19 19 19 19 19 19 19 19 19 19 19 19 19 19 19 18 19 20 20 20 20 20 20 20 20 20 19 19 18 18 18 17 17 17 16 16 16 16
20 21 20 20 20 19 19 19 19 19 19 19 19 19 19 19 19 19 19 19 19 19 19 19 20 21 21 21 21 20 20 20 20 19 19 19 18 18 17 17 17 16 16
20 21 20 20 20 20 20 19 19 19 19 19 19 20 20 19 19 20 20 20 20 19 19 19 21 22 22 21 21 21 21 21 21 20 20 19 19 18 18 17 17 17 16
21 21 20 21 20 20 20 20 19 19 19 19 20 20 20 20 20 20 20 20 21 20 20 21 22 22 22 22 22 21 21 21 21 21 20 20 19 19 19 18 17 17 17
21 21 21 21 21 21 20 20 20 20 20 20 20 20 20 20 20 20 21 21 21 21 21 21 22 21 22 22 22 22 22 22 22 21 21 21 20 20 20 19 18 18 17
22 21 21 21 21 21 21 21 21 20 20 20 21 20 21 20 21 21 21 21 21 21 20 21 21 20 20 21 22 22 22 22 21 21 21 21 21 20 20 20 19 18 18
22 22 21 21 21 21 22 22 22 21 21 21 21 21 21 21 21 21 21 21 21 20 20 19 18 18 19 18 19 19 18 19 20 19 21 21 20 21 21 20 20 19 19
23 22 22 21 22 22 22 23 23 22 22 22 22 22 22 22 22 22 22 21 20 20 21 20 19 19 19 19 18 18 18 18 18 18 18 18 18 19 19 20 20 20 20
23 23 22 22 22 22 23 23 23 22 22 23 23 23 23 23 23 23 23 22 22 21 21 20 20 20 20 19 19 19 18 18 18 18 18 20 18 19 20 20 20 20 20
23 23 23 23 22 22 23 23 23 22 22 22 23 23 23 23 23 23 23 22 22 22 22 22 21 21 20 19 19 19 18 18 19 19 17 17 18 17 18 17 19 19 19
23 23 23 23 23 23 24 24 23 22 23 23 23 23 23 23 23 23 22 22 22 22 21 21 21 20 20 19 20 19 19 19 18 20 17 17 17 17 17 17 17 17 19
24 24 24 24 24 24 24 24 23 22 22 23 23 23 23 23 23 22 21 21 21 21 20 20 19 20 20 20 20 19 19 19 19 18 18 18 18 17 17 17 17 16 16

GFSMA_850_temp_048.txt.gz
Temp
18 18 17 18 18 18 18 18 18 18 18 18 18 18 18 18 18 18 17 17 17 17 17 17 17 17 17 16 16 16 16 16 16 16 16 16 16 16 16 16 16 16 16
18 18 17 18 18 18 18 18 18 19 19 19 18 18 18 18 17 17 18 17 17 17 17 17 17 17 17 17 16 16 16 16 16 16 16 16 16 16 16 16 16 16 16
18 18 17 17 18 18 18 18 18 18 19 19 18 18 18 18 17 17 18 18 17 17 17 16 17 17 16 17 17 17 16 17 17 16 16 16 16 16 16 16 16 16 16
18 18 18 17 17 18 18 19 19 18 19 19 19 19 18 18 17 17 17 18 17 18 17 17 17 17 16 16 16 16 16 16 16 16 16 16 16 16 16 16 16 16 16
19 18 18 18 18 18 18 19 19 19 19 20 19 19 19 19 18 18 17 17 17 17 18 17 17 17 17 17 16 16 16 16 16 16 16 16 16 16 16 16 16 16 16
19 18 18 18 17 17 18 19 18 19 20 20 19 19 19 19 18 18 18 18 17 17 18 16 16 16 17 17 17 17 17 17 16 16 16 16 16 16 16 16 16 16 16
19 19 18 18 18 18 18 18 19 19 19 19 19 20 19 19 18 19 19 19 18 18 17 17 17 17 17 17 17 17 17 17 17 17 17 17 17 17 16 16 16 16 16
19 18 18 18 18 18 17 18 18 19 19 19 21 21 21 20 20 19 19 19 18 18 18 17 17 16 17 17 17 18 18 18 18 18 18 18 17 17 17 17 17 17 17
20 19 19 18 19 18 18 17 18 19 20 19 19 20 21 21 21 19 19 19 18 19 18 17 17 17 16 17 17 17 18 18 18 18 18 18 18 18 17 17 17 17 17
20 20 18 19 19 18 18 18 18 18 19 20 19 19 20 20 21 21 20 19 19 19 18 18 18 18 17 17 17 17 17 18 18 18 18 18 18 17 17 17 17 17 17
20 19 19 19 19 18 18 18 18 19 19 20 20 20 19 20 19 21 22 21 20 20 19 19 19 19 18 17 17 17 17 18 18 18 18 18 18 17 17 17 17 17 17
19 19 20 19 19 19 18 18 19 19 18 19 19 19 20 21 21 21 21 21 21 21 20 20 19 19 19 18 18 18 18 18 18 18 18 18 18 17 17 17 17 17 16
20 19 19 20 19 19 18 18 19 18 19 18 19 19 20 20 20 20 20 21 21 21 21 20 20 20 19 19 19 19 19 19 19 18 18 18 18 18 17 17 17 17 16
20 20 18 18 20 19 19 18 18 18 18 18 19 19 19 20 19 20 20 20 21 22 21 21 21 20 20 19 19 20 19 20 19 19 19 18 18 18 18 17 17 17 16
20 19 19 18 18 19 19 18 18 18 18 18 18 18 18 20 19 19 19 20 20 22 23 22 21 21 20 20 19 20 20 20 20 19 19 19 19 18 18 18 17 17 17
20 20 19 18 18 18 20 19 19 18 18 18 19 18 18 19 19 19 19 20 20 20 21 22 22 21 20 21 20 21 21 21 21 21 20 20 20 19 19 18 18 17 17
21 21 20 20 18 18 19 20 19 19 18 18 18 18 18 18 19 20 20 19 20 20 20 22 22 21 21 23 22 22 22 22 21 21 21 21 21 20 20 19 19 18 18
21 21 21 21 19 19 18 18 19 19 18 18 18 18 18 19 20 20 19 19 20 20 20 20 20 20 20 20 21 22 22 20 20 20 21 22 21 21 20 20 20 19 19
22 21 21 21 21 19 19 19 19 19 19 19 19 19 19 18 18 20 19 20 20 19 19 19 20 20 21 20 20 19 19 19 20 19 19 21 21 21 21 21 20 20 20
22 22 21 21 21 21 19 19 19 20 19 19 19 19 19 19 19 19 19 19 19 19 20 20 20 21 22 21 21 20 20 20 21 21 20 19 19 19 20 21 21 21 20
23 22 22 21 21 20 20 19 19 19 19 20 19 19 20 20 20 21 20 20 19 19 20 21 21 22 22 22 22 21 21 21 21 21 21 21 21 20 20 19 19 19 20
23 23 22 22 21 20 21 21 21 20 19 20 20 20 21 21 22 22 21 21 21 20 20 20 21 21 21 20 21 21 21 21 21 21 20 20 20 20 19 19 19 19 18
23 23 23 22 22 22 22 22 23 22 20 20 20 20 20 21 21 22 22 23 23 22 22 21 21 21 21 20 19 19 20 20 19 19 19 19 19 19 19 20 20 19 18
24 23 23 23 23 23 23 23 23 23 22 22 21 20 21 23 22 21 20 20 20 20 21 22 23 23 22 20 19 19 19 20 19 19 18 19 18 19 19 19 19 18 18
23 24 24 23 23 23 24 24 23 22 22 23 23 23 23 23 24 24 23 23 22 21 20 20 20 21 20 20 20 19 20 19 20 18 19 18 19 19 19 18 18 19 18
24 23 23 23 24 24 24 24 24 23 21 21 23 24 24 24 24 24 24 23 22 21 19 19 19 19 19 19 20 20 19 19 19 19 19 18 18 18 17 17 18 18 17